Location: Gadern
(49.5873°N, 8.8138°E)
Time: 17:01:56
(UTC+00:00)

Cosmos 1238 Rocket - Pass Details

Date: 19 May 2025
Orbit: 356 x 777 km, 82.9° (Epoch: 17 June)

Event Time Altitude Azimuth Distance (km) Brightness Sun altitude
Exits shadow 21:21:25 26° 188° (S) 1,004 3.7 -15.5°
Maximum altitude 21:23:24 89° 116° (ESE) 472 2.4 -15.7°
Drops below altitude 10° 21:26:43 10° 9° (N) 1,532 5.9 -15.9°
Sets 21:28:38 0° 10° (N) 2,349 6.9 -16.1°
